RH
95 90 78 73 72 72 71 72 71 72 73 75 77 78 79 77 74 71 67 66 69 73 75 63 56 50 51 51 48 50 56 63 68 67 62 56 70 63 58 74 86 75 78
93 88 78 74 73 71 70 73 76 79 82 83 83 80 76 73 70 67 67 67 68 76 90 66 59 53 56 60 61 58 55 56 66 68 63 63 68 76 62 66 71 66 71
87 83 78 75 74 74 75 78 80 80 78 78 76 73 70 67 66 66 60 45 41 44 49 48 45 50 49 50 50 54 57 58 58 61 63 71 77 72 64 48 49 59 66
76 82 81 79 78 75 72 71 70 70 72 71 70 68 68 66 56 45 43 44 40 32 31 38 41 45 47 50 50 54 56 55 57 58 57 66 74 71 69 53 48 62 77
83 85 83 79 75 76 75 72 73 77 80 74 63 58 53 47 46 44 43 38 32 31 32 29 29 27 30 29 30 33 42 52 59 64 71 70 68 64 58 62 62 61 61
85 84 81 76 74 69 66 62 62 62 64 57 52 48 47 45 43 42 40 34 27 24 24 24 26 26 26 26 25 25 31 39 46 65 70 72 69 64 68 59 66 69 65
85 77 71 59 50 48 49 52 49 48 46 44 45 46 43 42 41 39 33 27 26 24 24 27 27 26 25 25 26 27 30 32 46 60 68 78 76 67 67 68 71 68 69
57 54 42 36 36 38 40 40 39 40 40 41 42 44 53 50 49 48 50 45 41 36 42 39 46 47 41 32 34 42 45 42 49 59 61 76 75 69 66 68 65 64 68
34 31 35 35 34 29 30 30 36 39 40 40 46 59 58 59 55 55 58 56 52 54 52 52 51 52 50 47 50 49 48 48 54 56 59 67 68 65 64 62 60 59 68
30 37 44 46 44 28 21 29 32 41 53 54 62 64 63 61 59 60 61 60 52 56 55 51 51 53 52 52 51 49 48 48 52 50 50 62 64 66 60 54 53 58 66
39 45 50 47 47 42 35 34 49 57 61 61 66 66 64 63 62 63 62 58 53 55 52 47 48 50 50 52 49 50 47 44 49 48 44 44 56 62 54 44 39 34 60
54 50 48 47 48 46 49 44 54 56 60 63 64 63 62 64 65 62 62 52 49 47 44 44 46 47 47 46 49 54 51 48 43 39 41 40 50 54 50 43 35 28 40
49 50 50 43 44 47 50 52 51 58 63 64 62 60 60 63 56 56 51 45 47 44 44 45 46 46 44 45 46 47 50 50 47 43 38 38 38 39 40 35 31 25 38
48 48 47 45 49 47 46 50 53 56 62 67 60 57 55 55 53 49 49 47 48 47 48 47 46 46 46 46 49 48 47 48 45 42 41 38 35 37 40 39 37 33 24
50 50 47 47 50 44 44 47 50 52 62 59 59 53 43 52 51 51 53 52 52 51 53 55 54 52 50 52 53 51 50 51 50 46 44 42 37 35 37 38 39 35 35
54 53 47 34 37 40 45 44 48 54 51 54 52 48 39 38 46 52 53 51 54 53 52 50 50 49 51 53 55 56 56 53 52 52 50 44 41 37 35 35 37 38 34
53 57 47 41 40 49 48 45 46 50 47 50 47 46 48 48 50 52 51 50 47 46 46 46 46 46 48 49 48 47 48 50 52 52 54 53 45 40 38 35 34 34 34
54 58 58 50 46 48 50 45 44 50 40 42 44 47 50 51 52 50 48 46 42 40 40 40 39 39 40 40 40 40 43 41 39 45 50 51 52 52 45 39 36 36 33
62 64 67 61 50 56 53 48 43 42 43 44 42 49 46 46 47 46 45 45 44 42 41 41 40 43 46 44 47 47 36 43 50 51 49 50 51 51 54 50 41 38 37
65 73 67 64 63 58 49 46 47 38 40 45 47 48 48 45 44 44 43 41 41 40 41 43 46 47 49 45 49 45 52 52 46 47 47 55 55 60 63 63 56 44 40
59 51 47 44 46 42 40 39 39 47 46 48 48 46 45 45 44 43 42 42 41 42 45 45 48 49 46 59 71 72 70 58 64 60 61 61 63 61 64 71 77 62 52
43 43 40 38 37 40 40 43 43 44 47 48 48 48 47 46 46 45 43 40 41 42 40 42 50 66 74 79 80 79 86 70 70 56 52 54 66 61 64 63 73 81 73
43 41 40 39 38 38 38 39 39 40 43 50 52 50 51 50 49 46 41 52 54 60 69 74 80 81 82 78 82 84 86 81 75 60 56 62 53 57 61 58 58 69 89
40 41 41 42 43 43 44 43 45 48 54 56 53 52 52 53 48 41 51 61 60 62 66 72 78 79 79 91 74 78 86 87 85 78 64 62 75 62 66 65 63 65 82
42 41 43 42 42 45 47 49 52 55 55 55 54 54 54 49 46 48 54 54 57 68 74 74 71 80 91 89 86 87 84 82 81 94 86 81 81 81 80 64 80 84 87
44 44 45 44 43 46 46 51 52 55 56 56 56 54 49 49 54 57 56 52 66 79 80 84 91 91 81 82 86 88 95 92 83 85 85 82 78 77 70 64 75 69 65
Wind_Speed
19 20 19 19 18 18 19 18 18 18 17 17 17 16 16 15 14 14 13 12 11 11 10 9 9 9 9 9 9 9 10 9 8 7 6 5 3 4 4 3 1 2 3
26 22 20 19 19 18 18 18 18 18 18 17 17 15 15 14 13 12 11 10 10 10 11 10 10 11 11 10 9 9 9 9 9 7 7 6 0 4 5 4 2 1 2
27 22 20 20 19 19 19 19 19 18 17 16 15 13 13 12 11 11 10 10 10 10 10 10 10 9 10 10 11 11 9 8 9 8 6 7 6 5 3 4 2 2 3
27 24 22 21 20 19 19 18 18 17 16 14 13 13 12 11 11 11 11 11 11 12 11 11 11 11 12 11 12 11 10 9 9 8 5 5 6 2 4 5 7 4 5
27 25 22 20 20 19 19 18 16 15 14 13 12 12 11 11 11 11 11 11 10 11 11 11 11 11 11 11 12 11 11 12 11 8 7 5 2 3 5 5 3 4 6
27 24 22 21 20 18 17 15 15 14 13 12 12 11 11 11 11 10 11 10 10 10 10 11 11 11 11 12 12 12 12 12 11 8 4 4 4 3 5 2 5 7 8
26 24 21 19 18 16 16 15 15 14 13 12 11 11 12 11 10 11 12 10 10 9 9 10 11 11 11 11 11 11 11 12 11 9 7 2 6 3 3 5 6 8 11
27 23 20 18 17 16 16 15 14 13 13 13 13 13 12 13 13 13 12 11 11 10 10 11 12 13 12 12 10 11 13 12 11 11 4 1 4 4 5 6 6 9 11
24 23 21 20 17 15 14 14 15 15 14 13 13 13 11 11 11 11 11 11 13 10 11 12 14 14 13 12 13 14 14 13 14 12 7 4 4 5 5 4 6 9 11
24 23 21 18 16 14 15 15 16 16 16 15 12 10 9 8 8 8 6 7 9 8 8 10 11 11 12 11 14 18 16 14 11 13 13 7 6 6 8 9 8 9 11
25 23 21 17 15 14 15 15 15 14 13 12 9 8 5 5 4 4 3 5 6 6 5 9 9 9 10 9 14 16 18 16 15 14 13 12 12 11 11 11 13 12 12
27 25 21 18 15 13 14 12 12 12 12 10 10 7 5 3 2 2 2 3 4 5 6 8 8 9 10 13 14 13 16 17 16 15 16 12 11 11 12 13 15 15 14
30 28 24 20 16 12 9 12 12 11 12 11 8 7 5 3 4 3 1 2 3 6 9 10 10 9 13 17 16 16 16 17 17 17 16 14 14 15 15 16 14 15 14
31 30 25 21 18 15 13 10 13 11 12 13 11 9 7 7 4 3 1 2 5 8 11 12 12 15 19 21 21 20 19 18 18 18 18 17 18 17 17 18 19 18 17
35 32 27 22 16 14 15 14 13 13 16 13 13 6 6 6 3 2 2 4 7 10 12 13 16 20 22 23 22 22 23 24 23 22 21 21 20 19 19 19 19 19 18
28 32 27 24 18 14 12 10 11 16 13 14 10 8 6 3 3 3 4 6 7 10 13 16 19 20 21 22 24 23 24 24 24 26 27 27 25 23 22 22 23 22 20
34 34 31 27 13 11 13 7 8 8 8 9 10 9 7 4 2 4 5 6 10 12 15 18 19 19 20 22 24 25 25 24 25 27 26 24 31 31 27 26 24 23 22
39 37 33 24 10 15 10 8 6 10 7 4 5 9 6 5 4 2 5 8 11 14 17 20 22 24 26 28 30 31 29 29 29 28 28 30 29 27 33 32 30 27 24
36 36 29 19 10 13 12 7 9 7 1 2 4 6 6 4 6 8 11 12 13 15 17 18 20 24 26 30 31 29 33 30 27 25 25 27 30 30 31 31 37 34 29
24 25 18 15 16 10 9 10 9 14 14 13 12 12 11 10 10 10 11 12 14 16 17 19 20 22 25 30 31 31 27 26 30 28 27 24 23 23 24 26 31 40 37
34 31 25 22 16 13 11 15 15 19 23 19 16 12 11 10 12 14 16 18 19 20 20 21 24 26 30 26 23 23 23 25 18 20 18 25 24 21 18 17 19 27 39
27 25 22 20 18 17 16 15 13 10 14 15 10 10 11 12 14 16 19 20 21 23 25 26 24 21 17 15 12 17 5 19 10 27 29 28 22 23 21 21 22 18 25
22 19 19 17 15 12 10 9 8 7 7 8 10 11 14 15 17 20 22 21 24 24 21 18 15 13 11 10 12 8 4 4 15 8 30 15 29 28 28 29 24 21 19
17 16 13 11 10 10 8 7 7 7 6 6 6 8 12 17 20 21 18 19 20 20 20 16 12 12 12 9 10 11 10 8 4 10 6 23 15 29 26 23 22 18 19
13 12 12 12 9 6 6 7 7 9 8 4 4 9 14 17 18 16 15 19 19 16 15 14 15 11 12 13 14 12 12 14 10 4 8 5 21 21 17 18 17 15 13
10 10 10 12 11 7 6 6 5 6 5 5 8 12 14 14 12 11 15 19 14 11 13 13 12 17 21 20 18 20 17 10 8 7 5 14 13 13 24 19 13 16 15
Wind_Direction
142 134 127 122 117 112 106 107 106 104 104 102 98 94 89 83 82 78 73 68 62 56 49 35 23 20 24 26 20 13 10 13 21 17 24 29 76 48 40 360 350 137 107
140 135 130 123 118 113 110 108 110 109 104 100 97 94 90 87 81 75 69 61 56 54 50 37 25 18 18 17 17 18 18 10 12 17 23 30 242 154 115 103 103 47 218
134 134 130 127 121 117 116 116 113 110 107 105 104 99 92 85 76 67 64 57 52 50 45 35 33 21 22 15 16 11 8 6 7 10 23 57 109 143 129 171 160 333 298
134 135 133 131 126 123 119 116 113 113 112 108 105 98 91 83 77 72 65 60 52 51 48 40 35 29 26 23 23 19 16 17 9 12 30 61 174 313 282 183 181 211 254
135 136 135 132 128 122 120 118 115 112 107 104 98 94 90 86 85 80 72 65 55 52 46 42 32 27 22 19 17 14 14 12 21 41 85 75 131 177 233 205 193 216 257
135 134 133 131 126 124 120 114 114 113 111 105 101 95 90 84 78 71 65 57 51 47 39 32 25 17 11 10 10 9 11 9 15 27 22 146 169 202 209 239 211 207 227
134 132 133 128 122 119 118 119 117 116 113 107 101 98 91 80 68 66 59 49 43 36 33 26 17 9 3 1 2 7 6 6 9 21 36 165 198 220 254 227 208 227 229
134 133 128 122 120 122 121 121 118 116 116 117 114 108 95 92 80 70 56 50 43 32 24 30 27 12 359 355 3 9 2 3 9 13 12 145 196 222 214 213 231 236 232
134 131 130 123 115 111 115 120 123 122 119 116 112 117 100 95 80 76 63 57 44 37 39 36 25 21 15 16 6 358 347 359 2 4 354 313 273 267 260 260 278 269 254
142 138 131 127 118 115 127 130 129 123 118 118 121 135 111 97 74 81 75 53 35 27 28 20 23 14 8 1 354 346 340 340 353 358 347 316 295 280 294 305 303 287 268
154 147 140 138 133 126 129 133 129 128 127 125 125 141 134 121 94 67 59 52 28 10 10 5 4 355 347 336 341 341 349 335 326 329 330 322 299 281 288 300 307 295 273
165 159 153 148 142 145 144 144 151 149 144 141 134 136 129 136 159 118 82 41 19 351 343 341 336 337 337 337 331 325 327 331 333 325 308 320 313 290 293 300 309 303 286
168 165 162 151 144 159 173 172 170 183 169 164 154 151 144 148 157 146 110 354 343 335 333 327 326 328 335 330 324 322 314 314 313 316 322 307 305 304 302 301 306 303 283
173 170 159 157 151 159 150 185 190 198 198 182 172 169 170 173 172 190 278 324 336 336 337 335 332 329 330 325 316 310 309 306 300 299 307 313 302 300 298 298 303 307 295
172 164 158 159 148 141 150 150 163 178 184 188 180 193 197 198 198 229 269 321 333 333 339 340 333 330 327 322 316 313 311 301 295 289 286 290 294 294 287 288 291 296 299
167 162 160 163 159 166 163 169 166 163 183 188 203 231 206 234 240 254 307 332 334 337 337 333 334 333 328 326 320 318 313 309 303 296 287 282 283 282 281 282 283 284 287
173 168 170 168 186 170 176 171 185 181 190 203 214 218 217 220 230 267 289 308 324 325 324 328 330 329 327 327 324 321 319 320 316 314 312 305 279 276 273 269 275 283 280
171 172 175 170 205 202 207 189 193 187 201 152 220 237 234 226 239 277 315 333 335 331 332 329 331 330 328 328 326 322 320 315 309 307 307 308 305 301 274 266 262 265 268
166 171 170 174 186 182 187 191 165 156 198 27 58 123 97 63 26 3 353 357 350 344 339 338 329 333 332 328 329 321 315 314 314 312 307 305 306 306 297 281 260 259 258
150 156 153 166 168 158 123 126 118 89 70 87 80 78 80 61 43 31 24 12 0 350 342 339 335 330 327 325 324 318 317 316 315 311 308 313 322 328 329 306 287 258 252
104 104 108 109 115 129 110 93 81 76 76 80 78 69 54 42 35 23 14 3 359 354 346 339 334 330 325 329 325 326 320 318 335 321 332 336 339 337 330 340 316 288 263
100 105 103 98 97 93 93 85 79 85 67 72 69 63 49 30 17 6 360 354 348 343 337 336 336 335 335 340 342 323 328 318 321 327 319 325 333 336 337 344 347 322 289
94 96 97 84 71 62 49 30 23 8 26 38 45 38 32 16 5 360 357 360 357 356 357 359 358 353 340 347 2 15 337 322 322 314 316 311 322 324 328 331 328 335 314
96 88 80 82 78 66 52 44 47 58 81 82 49 25 9 1 357 354 1 4 357 350 345 349 359 357 357 357 346 341 331 298 316 311 313 309 311 325 328 332 333 330 329
116 108 100 103 106 102 92 106 128 125 131 119 32 3 359 358 359 2 1 355 350 348 350 351 351 359 13 3 347 335 317 302 301 294 307 314 322 325 338 342 347 351 340
132 132 117 101 103 124 119 114 109 113 102 40 18 3 2 0 356 355 349 348 350 358 1 358 358 347 337 330 327 322 315 284 285 289 295 304 308 315 325 341 341 346 0